Orbital Elements at Epoch 2459200.5 (2020-Dec-17.0) TDB
Reference: JPL 14 (heliocentric ecliptic J2000)
Element | Value | Uncertainty (1-sigma) | Units |
e | .103014055928917 | 4.9523e-08 | |
a | 1.887073458878421 | 8.2155e-09 | au |
q | 1.692678368043544 | 9.408e-08 | au |
i | 18.23331930018077 | 1.0649e-05 | deg |
node | 324.2750951323662 | 1.6665e-05 | deg |
peri | 82.71893277401273 | 5.6883e-05 | deg |
M | 244.9125393308316 | 5.3132e-05 | deg |
tp | 2459503.196321689932 (2021-Oct-15.69632169) | 0.00014034 | TDB |
period | 946.8509877164083 2.59 | 6.1833e-06 1.693e-08 | d yr |
n | .3802076616809991 | 2.4829e-09 | deg/d |
Q | 2.081468549713297 | 9.0618e-09 | au |
|
| | Orbit Determination Parameters
Additional Information
|